Weather History for Moline, IL

Change the Weather History Date:

Monday, February 3, 2014

  Actual Average Record
Temperature  
Mean Temperature 0 °F 24 °F  
Max Temperature 21 °F 32 °F 60 °F (1992)
Min Temperature -22 °F 15 °F -28 °F (1996)
Degree Days  
Heating Degree Days 65 41  
Month to date heating degree days 174 125  
Since 1 July heating degree days 4441 3859  
Cooling Degree Days 0 0  
Month to date cooling degree days 0 0  
Year to date cooling degree days 0 0  
Moisture  
Dew Point -9 °F    
Average Humidity 62    
Maximum Humidity 79    
Minimum Humidity 45    
Precipitation  
Precipitation 0.00 in 0.04 in 0.93 in (1901)
Month to date precipitation 0.36 0.13  
Year to date precipitation 1.53 1.62  
Snow  
Snow 0.00 in 0.30 in - ()
Month to date snowfall 3.9 0.9  
Since 1 July snowfall 36.4 20.8  
Snow Depth 4.00 in    
Sea Level Pressure  
Sea Level Pressure 30.41 in    
Wind  
Wind Speed 1 mph (SSE)    
Max Wind Speed 8 mph    
Max Gust Speed 8 mph    
Visibility 10 miles    
Events      
T = Trace of Precipitation, MM = Missing Value Source: NWS Daily Summary

Daily Weather History Graph

Daily Weather History Graph

Search for Another Location

Airport:

Trip Planner

Search our weather history database for the weather conditions in past years. The results will help you decide how hot, cold, wet, or windy it might be!

Date:

Astronomy

Feb. 03, 2014 Rise Set
Actual Time 7:11 AM CST 5:20 PM CST
Civil Twilight 6:42 AM CST 5:49 PM CST
Nautical Twilight 6:09 AM CST 6:22 PM CST
Astronomical Twilight 5:36 AM CST 6:55 PM CST
Moon 9:10 AM CST (2/3) 10:15 PM CST (2/3)
Length of Visible Light 11h 07m
Length of Day
10h 09m
Waxing Crescent, 20% of the Moon is Illuminated
Feb 3
Waxing Crescent
Feb 6
First Quarter
Feb 14
Full
Feb 22
Last Quarter
Mar 1
New

Hourly Weather History & Observations

Time (CST) Temp. Windchill Dew Point Humidity Pressure Visibility Wind Dir Wind Speed Gust Speed Precip Events Conditions
12:52 AM -11.9 °F - -18.0 °F 74% 30.40 in 10.0 mi Calm Calm - N/A   Clear
1:52 AM -15.0 °F - -20.0 °F 78% 30.40 in 10.0 mi Calm Calm - N/A   Clear
2:52 AM -17.0 °F - -22.0 °F 78% 30.41 in 10.0 mi Calm Calm - N/A   Clear
3:52 AM -18.0 °F - -24.0 °F 74% 30.42 in 10.0 mi Calm Calm - N/A   Clear
4:52 AM -18.0 °F - -24.0 °F 74% 30.42 in 10.0 mi Calm Calm - N/A   Clear
5:52 AM -20.9 °F - -26.0 °F 77% 30.42 in 10.0 mi Calm Calm - N/A   Clear
6:52 AM -17.0 °F -27.2 °F -24.0 °F 70% 30.43 in 10.0 mi SE 3.5 mph - N/A   Clear
7:52 AM -18.0 °F - -23.1 °F 78% 30.44 in 10.0 mi Calm Calm - N/A   Clear
8:52 AM -9.9 °F - -14.1 °F 82% 30.43 in 8.0 mi Calm Calm - N/A   Clear
9:52 AM -0.9 °F - -6.0 °F 79% 30.44 in 7.0 mi Calm Calm - N/A   Clear
10:52 AM 10.9 °F - 1.0 °F 64% 30.45 in 10.0 mi Calm Calm - N/A   Clear
11:52 AM 16.0 °F - 1.9 °F 54% 30.43 in 10.0 mi Calm Calm - N/A   Clear
12:52 PM 17.1 °F - 1.0 °F 50% 30.40 in 10.0 mi Calm Calm - N/A   Clear
1:52 PM 18.0 °F - 1.0 °F 48% 30.38 in 10.0 mi Calm Calm - N/A   Clear
2:52 PM 19.0 °F 13.9 °F 3.0 °F 50% 30.38 in 10.0 mi SW 3.5 mph - N/A   Clear
3:52 PM 19.9 °F - 1.0 °F 44% 30.39 in 10.0 mi Calm Calm - N/A   Clear
4:52 PM 15.1 °F 5.2 °F -0.0 °F 51% 30.40 in 10.0 mi SW 6.9 mph - N/A   Clear
5:52 PM 9.0 °F - -2.0 °F 61% 30.40 in 10.0 mi Calm Calm - N/A   Clear
6:52 PM 5.0 °F - -2.9 °F 70% 30.40 in 10.0 mi Calm Calm - N/A   Clear
7:52 PM 5.0 °F -4.1 °F -2.9 °F 70% 30.39 in 10.0 mi East 4.6 mph - N/A   Clear
8:52 PM 3.0 °F -4.4 °F -5.1 °F 69% 30.40 in 10.0 mi ESE 3.5 mph - N/A   Clear
9:52 PM 3.9 °F - -2.9 °F 73% 30.40 in 10.0 mi Calm Calm - N/A   Clear
10:52 PM 3.0 °F - -2.9 °F 76% 30.40 in 10.0 mi Calm Calm - N/A   Clear
11:52 PM 3.0 °F - -2.9 °F 76% 30.41 in 10.0 mi Calm Calm - N/A   Clear